| time (UTC) | temp C | wind direction | speed KPH | gust KPH | rain 1hr cm | rain 24hr cm | rain mn cm | humidity % | barometer mb |
| 20260510115023 | 15 | 147 | 1.6 | 6.4 | 0.00 | 0.00 | 0.00 | 97 | 1015.5 |
| 20260510114018 | 14 | 130 | 0.0 | 8.0 | 0.00 | 0.00 | 0.00 | 97 | 1015.5 |
| 20260510113024 | 14 | 130 | 1.6 | 8.0 | 0.00 | 0.00 | 0.00 | 97 | 1015.5 |
| 20260510112036 | 15 | 113 | 0.0 | 3.2 | 0.00 | 0.00 | 0.00 | 97 | 1015.5 |
| 20260510111023 | 15 | 145 | 3.2 | 12.9 | 0.00 | 0.00 | 0.00 | 97 | 1015.5 |
| 20260510110022 | 15 | 139 | 1.6 | 9.7 | 0.00 | 0.00 | 0.00 | 97 | 1015.5 |
| 20260510105021 | 15 | 126 | 3.2 | 9.7 | 0.00 | 0.00 | 0.00 | 97 | 1015.5 |
| 20260510104023 | 14 | 131 | 1.6 | 9.7 | 0.00 | 0.00 | 0.00 | 97 | 1015.5 |
| 20260510103039 | 15 | 147 | 1.6 | 6.4 | 0.00 | 0.00 | 0.00 | 97 | 1015.5 |
| 20260510102042 | 15 | 148 | 0.0 | 4.8 | 0.00 | 0.00 | 0.00 | 97 | 1015.5 |
| 20260510101103 | 16 | 153 | 1.6 | 9.7 | 0.00 | 0.00 | 0.00 | 97 | 1015.5 |
| 20260510100025 | 16 | 135 | 3.2 | 9.7 | 0.00 | 0.00 | 0.00 | 97 | 1015.5 |
| 20260510095025 | 16 | 100 | 3.2 | 6.4 | 0.00 | 0.00 | 0.00 | 97 | 1015.5 |
| 20260510093523 | 15 | 82 | 3.2 | 8.0 | 0.00 | 0.00 | 0.00 | 97 | 1015.3 |
| 20260510092518 | 15 | 144 | 4.8 | 11.3 | 0.00 | 0.00 | 0.00 | 97 | 1015.2 |
| 20260510091527 | 14 | 143 | 4.8 | 9.7 | 0.00 | 0.00 | 0.00 | 97 | 1015.4 |
| 20260510090522 | 14 | 95 | 4.8 | 9.7 | 0.00 | 0.00 | 0.00 | 97 | 1015.4 |
| 20260510085516 | 13 | 135 | 3.2 | 12.9 | 0.00 | 0.00 | 0.00 | 97 | 1015.5 |
| 20260510084520 | 13 | 133 | 3.2 | 8.0 | 0.00 | 0.00 | 0.00 | 97 | 1015.5 |
| 20260510083520 | 14 | 95 | 1.6 | 6.4 | 0.00 | 0.00 | 0.00 | 97 | 1015.3 |
| 20260510082524 | 15 | 126 | 1.6 | 9.7 | 0.00 | 0.00 | 0.00 | 97 | 1015.4 |
| 20260510081521 | 15 | 122 | 1.6 | 8.0 | 0.00 | 0.00 | 0.00 | 97 | 1015.5 |
| 20260510080539 | 15 | 113 | 3.2 | 9.7 | 0.00 | 0.00 | 0.00 | 97 | 1014.8 |
| 20260510075522 | 14 | 78 | 3.2 | 14.5 | 0.00 | 0.00 | 0.00 | 97 | 1014.5 |
| 20260510074539 | 14 | 35 | 4.8 | 14.5 | 0.00 | 0.00 | 0.00 | 97 | 1014.6 |
| 20260510073517 | 14 | 113 | 3.2 | 12.9 | 0.00 | 0.00 | 0.00 | 97 | 1014.5 |
| 20260510072520 | 13 | 62 | 1.6 | 11.3 | 0.00 | 0.00 | 0.00 | 97 | 1014.5 |
| 20260510071516 | 14 | 144 | 3.2 | 9.7 | 0.00 | 0.00 | 0.00 | 97 | 1014.6 |
| 20260510070522 | 15 | 120 | 6.4 | 12.9 | 0.00 | 0.00 | 0.00 | 97 | 1014.5 |
| 20260510065516 | 15 | 65 | 4.8 | 19.3 | 0.00 | 0.00 | 0.00 | 97 | 1014.5 |
| 20260510064524 | 15 | 115 | 6.4 | 11.3 | 0.00 | 0.00 | 0.00 | 97 | 1014.5 |
| 20260510063522 | 14 | 105 | 1.6 | 6.4 | 0.00 | 0.00 | 0.00 | 97 | 1014.5 |
| 20260510062516 | 13 | 141 | 3.2 | 12.9 | 0.00 | 0.00 | 0.00 | 97 | 1014.5 |
| 20260510061522 | 13 | 154 | 1.6 | 6.4 | 0.00 | 0.00 | 0.00 | 97 | 1014.5 |
| 20260510060539 | 13 | 0.0 | 3.2 | 0.00 | 0.00 | 0.00 | 97 | 1014.5 | |
| 20260510055522 | 13 | 135 | 1.6 | 11.3 | 0.00 | 0.00 | 0.00 | 97 | 1014.5 |
| 20260510054520 | 12 | 142 | 6.4 | 11.3 | 0.00 | 0.00 | 0.00 | 97 | 1014.3 |
| 20260510053518 | 12 | 158 | 0.0 | 3.2 | 0.00 | 0.00 | 0.00 | 97 | 1013.5 |
| 20260510052521 | 13 | 135 | 0.0 | 9.7 | 0.00 | 0.00 | 0.00 | 97 | 1013.5 |
| 20260510051519 | 12 | 143 | 3.2 | 9.7 | 0.00 | 0.00 | 0.00 | 97 | 1013.7 |
| 20260510050524 | 12 | 146 | 0.0 | 6.4 | 0.00 | 0.00 | 0.00 | 97 | 1013.6 |
| 20260510045518 | 12 | 191 | 1.6 | 12.9 | 0.00 | 0.00 | 0.00 | 97 | 1013.5 |
| 20260510044517 | 12 | 129 | 1.6 | 8.0 | 0.00 | 0.00 | 0.00 | 97 | 1013.6 |
| 20260510043543 | 12 | 158 | 0.0 | 3.2 | 0.00 | 0.00 | 0.00 | 97 | 1013.9 |
| 20260510042517 | 13 | 158 | 1.6 | 9.7 | 0.00 | 0.00 | 0.00 | 97 | 1014.3 |
| 20260510041525 | 13 | 0.0 | 4.8 | 0.00 | 0.00 | 0.00 | 97 | 1014.5 | |
| 20260510040523 | 13 | 92 | 3.2 | 6.4 | 0.00 | 0.00 | 0.00 | 97 | 1014.3 |
| 20260510035526 | 13 | 131 | 3.2 | 17.7 | 0.00 | 0.00 | 0.00 | 97 | 1014.4 |
| 20260510034523 | 14 | 42 | 6.4 | 12.9 | 0.00 | 0.00 | 0.00 | 97 | 1014.3 |
| 20260510033521 | 14 | 26 | 8.0 | 14.5 | 0.00 | 0.00 | 0.00 | 97 | 1013.7 |
| 20260510032525 | 13 | 13 | 9.7 | 20.9 | 0.00 | 0.00 | 0.00 | 97 | 1013.7 |
| 20260510031520 | 13 | 52 | 8.0 | 16.1 | 0.00 | 0.00 | 0.00 | 97 | 1014.0 |
| 20260510030518 | 13 | 41 | 8.0 | 16.1 | 0.00 | 0.00 | 0.00 | 97 | 1013.9 |
| 20260510025520 | 13 | 90 | 1.6 | 8.0 | 0.00 | 0.00 | 0.00 | 97 | 1014.5 |
| 20260510024519 | 13 | 225 | 1.6 | 6.4 | 0.00 | 0.00 | 0.00 | 97 | 1014.5 |
| 20260510023517 | 14 | 150 | 1.6 | 8.0 | 0.00 | 0.00 | 0.00 | 97 | 1014.5 |
| 20260510022522 | 14 | 120 | 3.2 | 25.7 | 0.00 | 0.00 | 0.00 | 97 | 1014.5 |
| 20260510021517 | 14 | 52 | 8.0 | 20.9 | 0.00 | 0.00 | 0.00 | 97 | 1014.5 |
| 20260510020516 | 14 | 27 | 8.0 | 14.5 | 0.00 | 0.00 | 0.00 | 97 | 1014.4 |
| 20260510015518 | 13 | 90 | 9.7 | 20.9 | 0.00 | 0.00 | 0.00 | 97 | 1014.5 |
| 20260510014525 | 13 | 48 | 6.4 | 16.1 | 0.00 | 0.00 | 0.00 | 97 | 1014.5 |
| 20260510013520 | 13 | 62 | 8.0 | 17.7 | 0.00 | 0.00 | 0.00 | 97 | 1014.2 |
| 20260510012525 | 13 | 43 | 11.3 | 17.7 | 0.00 | 0.00 | 0.00 | 97 | 1014.5 |
| 20260510011517 | 12 | 93 | 6.4 | 11.3 | 0.00 | 0.00 | 0.00 | 97 | 1014.5 |
| 20260510010522 | 12 | 25 | 1.6 | 6.4 | 0.00 | 0.00 | 0.00 | 97 | 1014.5 |
| 20260510005516 | 13 | 135 | 3.2 | 12.9 | 0.00 | 0.00 | 0.00 | 97 | 1014.9 |
| 20260510004524 | 13 | 85 | 6.4 | 9.7 | 0.00 | 0.00 | 0.00 | 97 | 1015.1 |
| 20260510003518 | 13 | 75 | 6.4 | 14.5 | 0.00 | 0.00 | 0.00 | 97 | 1014.5 |
| 20260510002524 | 13 | 71 | 9.7 | 20.9 | 0.00 | 0.00 | 0.00 | 97 | 1014.5 |
| 20260510001521 | 13 | 30 | 9.7 | 17.7 | 0.00 | 0.00 | 0.00 | 97 | 1014.5 |
| 20260510000542 | 13 | 32 | 0.0 | 8.0 | 0.00 | 0.00 | 0.00 | 97 | 1014.5 |
| 20260509235523 | 15 | 45 | 0.0 | 12.9 | 0.00 | 0.00 | 0.00 | 97 | 1015.0 |
| 20260509234601 | 15 | 102 | 1.6 | 8.0 | 0.00 | 0.00 | 0.00 | 97 | 1015.1 |
| 20260509233523 | 15 | 61 | 3.2 | 8.0 | 0.00 | 0.00 | 0.00 | 97 | 1015.3 |
| 20260509232523 | 14 | 115 | 4.8 | 14.5 | 0.00 | 0.00 | 0.00 | 97 | 1015.0 |
| 20260509231516 | 13 | 74 | 1.6 | 6.4 | 0.00 | 0.00 | 0.00 | 97 | 1015.5 |
| 20260509230516 | 13 | 46 | 3.2 | 12.9 | 0.00 | 0.00 | 0.00 | 97 | 1015.5 |
| 20260509225520 | 13 | 27 | 3.2 | 17.7 | 0.00 | 0.00 | 0.00 | 97 | 1015.5 |
| 20260509224525 | 13 | 354 | 8.0 | 17.7 | 0.00 | 0.00 | 0.00 | 97 | 1015.5 |
| 20260509223523 | 12 | 159 | 3.2 | 8.0 | 0.00 | 0.00 | 0.00 | 97 | 1015.5 |
| 20260509222536 | 13 | 99 | 6.4 | 17.7 | 0.00 | 0.00 | 0.00 | 97 | 1015.5 |
| 20260509221516 | 14 | 19 | 8.0 | 17.7 | 0.00 | 0.00 | 0.00 | 97 | 1015.5 |
| 20260509220522 | 15 | 60 | 0.0 | 8.0 | 0.00 | 0.00 | 0.00 | 97 | 1016.4 |
| 20260509215525 | 15 | 48 | 1.6 | 11.3 | 0.00 | 0.00 | 0.00 | 97 | 1016.5 |
| 20260509214522 | 15 | 56 | 1.6 | 11.3 | 0.00 | 0.00 | 0.00 | 97 | 1016.5 |
| 20260509213520 | 15 | 0.0 | 3.2 | 0.00 | 0.00 | 0.00 | 97 | 1016.5 | |
| 20260509212524 | 15 | 22 | 1.6 | 14.5 | 0.00 | 0.00 | 0.00 | 97 | 1016.5 |
| 20260509211516 | 15 | 107 | 1.6 | 9.7 | 0.00 | 0.00 | 0.00 | 97 | 1016.4 |
| 20260509210518 | 15 | 29 | 1.6 | 11.3 | 0.00 | 0.00 | 0.00 | 97 | 1015.9 |
| 20260509205522 | 15 | 117 | 3.2 | 17.7 | 0.00 | 0.00 | 0.00 | 97 | 1015.9 |
| 20260509204521 | 15 | 58 | 1.6 | 11.3 | 0.00 | 0.00 | 0.00 | 97 | 1016.3 |
| 20260509203556 | 15 | 40 | 4.8 | 19.3 | 0.00 | 0.00 | 0.00 | 97 | 1016.3 |
| 20260509202520 | 15 | 56 | 3.2 | 12.9 | 0.00 | 0.00 | 0.00 | 97 | 1016.5 |
| 20260509201520 | 14 | 47 | 3.2 | 12.9 | 0.00 | 0.00 | 0.00 | 97 | 1016.5 |
| 20260509200516 | 14 | 51 | 4.8 | 12.9 | 0.00 | 0.00 | 0.00 | 97 | 1016.5 |
| 20260509195518 | 14 | 17 | 0.0 | 9.7 | 0.00 | 0.00 | 0.00 | 97 | 1016.5 |
| 20260509194516 | 13 | 90 | 0.0 | 8.0 | 0.00 | 0.00 | 0.00 | 97 | 1016.5 |
| 20260509193522 | 13 | 0.0 | 0.0 | 0.00 | 0.00 | 0.00 | 97 | 1016.5 | |
| 20260509192516 | 13 | 0.0 | 0.0 | 0.00 | 0.00 | 0.00 | 97 | 1016.5 | |
| 20260509191516 | 13 | 0.0 | 0.0 | 0.00 | 0.00 | 0.00 | 97 | 1016.5 | |
| 20260509190522 | 13 | 0.0 | 0.0 | 0.00 | 0.00 | 0.00 | 97 | 1016.5 | |
| 20260509185515 | 13 | 0.0 | 0.0 | 0.00 | 0.00 | 0.00 | 97 | 1016.5 | |
| 20260509184520 | 14 | 0.0 | 0.0 | 0.00 | 0.00 | 0.00 | 97 | 1016.5 | |
| 20260509183519 | 15 | 0.0 | 0.0 | 0.00 | 0.00 | 0.00 | 97 | 1016.5 | |
| 20260509182523 | 15 | 0.0 | 0.0 | 0.00 | 0.00 | 0.00 | 97 | 1015.9 | |
| 20260509181518 | 15 | 0.0 | 0.0 | 0.00 | 0.00 | 0.00 | 97 | 1015.5 | |
| 20260509180516 | 15 | 0.0 | 0.0 | 0.00 | 0.00 | 0.00 | 97 | 1015.5 | |
| 20260509175521 | 15 | 2 | 0.0 | 8.0 | 0.00 | 0.00 | 0.00 | 97 | 1015.9 |
| 20260509174518 | 15 | 0.0 | 0.0 | 0.00 | 0.00 | 0.00 | 97 | 1015.7 | |
| 20260509173521 | 15 | 0 | 0.0 | 6.4 | 0.00 | 0.00 | 0.00 | 97 | 1015.7 |
| 20260509172523 | 15 | 135 | 0.0 | 11.3 | 0.00 | 0.00 | 0.00 | 97 | 1015.9 |
| 20260509171556 | 15 | 45 | 0.0 | 3.2 | 0.00 | 0.00 | 0.00 | 97 | 1016.0 |
| 20260509170525 | 16 | 0 | 0.0 | 3.2 | 0.00 | 0.00 | 0.00 | 97 | 1015.7 |
| 20260509165518 | 16 | 0 | 0.0 | 4.8 | 0.00 | 0.00 | 0.00 | 97 | 1016.0 |
| 20260509164604 | 16 | 23 | 0.0 | 3.2 | 0.00 | 0.00 | 0.00 | 97 | 1016.2 |
| 20260509163515 | 17 | 143 | 0.0 | 12.9 | 0.00 | 0.00 | 0.00 | 97 | 1016.5 |
| 20260509162517 | 17 | 293 | 0.0 | 9.7 | 0.00 | 0.00 | 0.00 | 97 | 1016.5 |
| 20260509161526 | 17 | 0.0 | 3.2 | 0.00 | 0.00 | 0.00 | 97 | 1016.5 | |
| 20260509160523 | 17 | 338 | 0.0 | 9.7 | 0.00 | 0.00 | 0.00 | 94 | 1016.5 |
| 20260509155547 | 17 | 143 | 1.6 | 16.1 | 0.00 | 0.00 | 0.00 | 94 | 1016.5 |
| 20260509154523 | 18 | 25 | 0.0 | 6.4 | 0.00 | 0.00 | 0.00 | 94 | 1016.5 |
| 20260509153522 | 17 | 132 | 1.6 | 11.3 | 0.00 | 0.00 | 0.00 | 92 | 1016.5 |
| 20260509152525 | 17 | 117 | 1.6 | 12.9 | 0.00 | 0.00 | 0.00 | 89 | 1016.5 |
| 20260509151519 | 17 | 45 | 0.0 | 4.8 | 0.00 | 0.00 | 0.00 | 91 | 1016.5 |
| 20260509150538 | 17 | 158 | 0.0 | 6.4 | 0.00 | 0.00 | 0.00 | 92 | 1016.5 |
| 20260509145522 | 17 | 145 | 0.0 | 6.4 | 0.00 | 0.00 | 0.00 | 90 | 1016.6 |
| 20260509144516 | 17 | 0.0 | 0.0 | 0.00 | 0.00 | 0.00 | 88 | 1017.2 | |
| 20260509143516 | 18 | 146 | 0.0 | 6.4 | 0.00 | 0.00 | 0.00 | 90 | 1017.5 |
| 20260509142520 | 18 | 129 | 3.2 | 12.9 | 0.00 | 0.00 | 0.00 | 91 | 1017.5 |
| 20260509141545 | 18 | 144 | 1.6 | 11.3 | 0.00 | 0.00 | 0.00 | 94 | 1017.5 |
| 20260509140518 | 18 | 180 | 0.0 | 3.2 | 0.00 | 0.00 | 0.00 | 97 | 1017.6 |
| 20260509135539 | 18 | 92 | 1.6 | 9.7 | 0.00 | 0.00 | 0.00 | 95 | 1017.9 |
| 20260509134525 | 18 | 64 | 0.0 | 4.8 | 0.00 | 0.00 | 0.00 | 97 | 1017.8 |
| 20260509133543 | 18 | 113 | 1.6 | 6.4 | 0.00 | 0.00 | 0.00 | 97 | 1018.4 |
| 20260509132536 | 19 | 64 | 1.6 | 12.9 | 0.00 | 0.00 | 0.00 | 95 | 1018.5 |
| 20260509131522 | 19 | 86 | 1.6 | 9.7 | 0.00 | 0.00 | 0.00 | 97 | 1018.5 |
| 20260509130524 | 20 | 87 | 4.8 | 11.3 | 0.00 | 0.00 | 0.00 | 96 | 1018.5 |
| 20260509125523 | 20 | 77 | 4.8 | 17.7 | 0.00 | 0.00 | 0.00 | 97 | 1018.5 |
| 20260509124521 | 20 | 110 | 3.2 | 9.7 | 0.00 | 0.00 | 0.00 | 97 | 1018.5 |
| 20260509123537 | 20 | 141 | 3.2 | 12.9 | 0.00 | 0.00 | 0.00 | 97 | 1018.5 |
| 20260509122520 | 19 | 131 | 6.4 | 16.1 | 0.00 | 0.00 | 0.00 | 97 | 1018.6 |
| 20260509121518 | 19 | 112 | 4.8 | 11.3 | 0.00 | 0.00 | 0.00 | 97 | 1018.5 |
| 20260509120542 | 19 | 125 | 4.8 | 9.7 | 0.00 | 0.00 | 0.00 | 97 | 1018.6 |